﻿METLOCID,DATE_TIME,AVG_WSPD,STDDEV_WSPD,MIN_WSPD,MAX_WSPD,N_WSPD
BRHM,12/1/94,6.125769231,1.478202078,3.3,8.76,26
BRHM,1/1/95,4.365806452,2.029962877,0.52,11.1,744
BRHM,2/1/95,4.944241071,3.461216289,0.25,16.85,672
BRHM,3/1/95,2.761209677,2.93553591,0.05,16.63,744
BRHM,4/1/95,2.577944444,3.309812603,0.05,15.62,720
BRHM,5/1/95,2.880268817,3.502876946,0.03,19.75,744
BRHM,6/1/95,4.319027778,4.65596289,0.04,18.84,720
BRHM,7/1/95,2.698534946,3.027361164,0.18,16.29,744
BRHM,8/1/95,6.293928571,5.454617186,0,19.31,252
BRHM,11/1/95,2.743962804,1.63406288,0.07,10,699
BRHM,12/1/95,2.129327957,0.872400004,0.04,4.59,2976
BRHM,1/1/96,2.376888441,1.057751696,0.03,6.5,2976
BRHM,2/1/96,1.721048851,0.9633355,0,5,2784
BRHM,3/1/96,1.779267473,2.130461804,0,11.6,2976
BRHM,4/1/96,2.237904553,2.040698799,0,9.8,1823
BRHM,11/1/96,3.907978404,1.994112566,0,9.8,1667
BRHM,12/1/96,4.16999328,1.882168462,0.1,12,2976
BRHM,1/1/97,3.880597015,1.599865339,0,7.6,2948
BRHM,2/1/97,3.324553571,2.210448129,0,13.8,2688
BRHM,3/1/97,1.814251781,2.006785961,0,11.3,2947
BRHM,4/1/97,1.8128125,2.484910852,0,15.4,2880
BRHM,5/1/97,4.138340054,4.094164546,0,17.9,2976
BRHM,6/1/97,3.845381944,4.10706313,0,16.9,2880
BRHM,7/1/97,2.262264785,3.053092788,0,14.8,2976
BRHM,8/1/97,2.818447581,3.684777554,0,18.6,2976
BRHM,9/1/97,2.953266332,3.325493458,0,15.4,2786
BRHM,10/1/97,3.653091398,3.13992836,0,17.8,2976
BRHM,11/1/97,4.29513382,2.218130178,0.2,12.3,2877
BRHM,12/1/97,4.344791667,1.677042141,0,9.5,2976
BRHM,1/1/98,3.956806723,1.751258522,0,8.6,2975
BRHM,2/1/98,3.711421131,2.901347772,0,14.8,2688
BRHM,3/1/98,1.991196237,2.119055548,0,10.5,2976
BRHM,4/1/98,2.553819444,3.237766566,0,16.4,2880
BRHM,5/1/98,2.910416667,3.27655779,0,15,2976
BRHM,6/1/98,3.929618056,4.092968054,0,19.9,2880
BRHM,7/1/98,2.906283602,3.440335751,0,19.2,2976
BRHM,8/1/98,2.444926075,3.909217007,0,21.1,2976
BRHM,9/1/98,1.163958333,1.501035752,0,9.6,2880
BRHM,10/1/98,3.024092742,2.936220777,0,16.8,2976
BRHM,11/1/98,3.938333333,2.205853465,0,12,2880
BRHM,12/1/98,5.099563172,2.220658501,0.1,15.3,2976
BRHM,1/1/99,3.76468414,1.732762724,0,10.3,2976
BRHM,2/1/99,3.075706845,2.219452825,0,11.3,2688
BRHM,3/1/99,1.772412634,2.032125606,0,9.1,2976
BRHM,4/1/99,1.331145833,1.612929288,0,9.5,2880
BRHM,5/1/99,2.43343414,2.989971097,0,15.6,2976
BRHM,6/1/99,2.363715278,2.803850268,0,13.6,2880
BRHM,7/1/99,3.205073925,3.485031299,0,17.5,2976
BRHM,8/1/99,2.194455645,3.180088182,0,14.7,2976
BRHM,9/1/99,2.173194444,2.650318036,0,14.4,2880
BRHM,10/1/99,3.650336022,3.878604083,0,22.3,2976
BRHM,11/1/99,3.756770833,1.952752795,0,12,2880
BRHM,12/1/99,4.684274194,2.020769804,0.2,13.7,2976
BRHM,1/1/00,4.27718414,1.859299661,0,10.8,2976
BRHM,2/1/00,4.327765805,3.052263858,0,15.8,2784
BRHM,3/1/00,2.583770161,2.981877255,0,17.2,2976
BRHM,4/1/00,1.732986111,1.986051247,0,10.3,2880
BRHM,5/1/00,1.839180108,2.286350554,0,12.6,2976
BRHM,6/1/00,2.171631944,3.003318318,0,17.8,2880
BRHM,7/1/00,4.463642473,4.368917183,0,18.7,2976
BRHM,8/1/00,3.955880376,4.353482798,0,19.4,2976
BRHM,9/1/00,4.626388889,5.139345347,0,21.9,2880
BRHM,10/1/00,2.484408602,2.024651152,0,10.3,2976
BRHM,11/1/00,4.603819444,2.595349328,0,14.9,2880
BRHM,12/1/00,4.596202957,1.679552471,0.2,9.1,2976
BRHM,1/1/01,4.378326613,1.941487956,0,11.4,2976
BRHM,2/1/01,3.195014881,1.833141251,0.1,9.2,2688
BRHM,3/1/01,2.347009409,3.040320272,0,21,2976
BRHM,4/1/01,2.900625,3.559778732,0,16.8,2880
BRHM,5/1/01,3.775571237,4.371976998,0,19.3,2976
BRHM,6/1/01,3.626180556,3.55162815,0,15.3,2880
BRHM,7/1/01,3.514482527,4.130056496,0,17.5,2976
BRHM,8/1/01,1.575100806,2.121521966,0,14.6,2976
BRHM,9/1/01,2.264652778,2.769038217,0,15.3,2880
BRHM,10/1/01,3.408971774,2.764657528,0,14.3,2976
BRHM,11/1/01,4.2509375,2.168805129,0,12.6,2880
BRHM,12/1/01,4.719435104,2.306653726,0,17.2,2974
BRHM,1/1/02,4.338239247,2.315166537,0,17.4,2976
BRHM,2/1/02,3.87124256,2.429172889,0,13.1,2688
BRHM,3/1/02,3.272950269,2.800678939,0,14.3,2976
BRHM,4/1/02,3.215902778,3.801146591,0,18.1,2880
BRHM,5/1/02,3.171505376,3.281892447,0,14.4,2976
BRHM,6/1/02,2.512951389,3.373094353,0,19,2880
BRHM,7/1/02,3.19280914,3.821292232,0,20.3,2976
BRHM,8/1/02,2.930040323,3.46744545,0,17,2976
BRHM,9/1/02,1.894097222,2.392887723,0,13.7,2880
BRHM,10/1/02,2.070799731,2.235282585,0,11.5,2976
BRHM,11/1/02,3.728645833,2.678652873,0,15.8,2880
BRHM,12/1/02,4.438306452,1.712655127,0.1,11.8,2976
BRHM,1/1/03,3.461525538,1.781811435,0,9.6,2976
BRHM,2/1/03,2.535193452,1.643343273,0,8.1,2688
BRHM,3/1/03,2.271673387,2.613526679,0,12.4,2976
BRHM,4/1/03,1.444027778,2.196125079,0,17.7,2880
BRHM,5/1/03,4.527318548,4.498196427,0,20.5,2976
BRHM,6/1/03,2.175902778,3.223247639,0,17.8,2880
BRHM,7/1/03,3.588978495,3.90310019,0,16.5,2976
BRHM,8/1/03,2.717842742,3.107794622,0,17.7,2976
BRHM,9/1/03,4.121909722,4.997000403,0,21.2,2880
BRHM,10/1/03,4.095732527,3.748651558,0.1,17.7,2976
BRHM,11/1/03,3.877222222,2.037306262,0,9.7,2880
BRHM,12/1/03,3.971706989,1.821654777,0,12.7,2976
BRHM,1/1/04,4.183702957,1.787824329,0,9.8,2976
BRHM,2/1/04,2.994468391,1.866867421,0,8.5,2784
BRHM,3/1/04,1.642237903,1.964696884,0,14.4,2976
BRHM,4/1/04,1.998229167,2.321314991,0,11.3,2880
BRHM,5/1/04,3.429334677,4.194850348,0,20.2,2976
BRHM,6/1/04,5.253055556,5.736265537,0,24.9,2880
BRHM,7/1/04,2.751948925,3.375817545,0,16.8,2976
BRHM,8/1/04,4.834038978,5.455833417,0,26,2976
BRHM,9/1/04,2.417951389,3.031648617,0,16.4,2880
BRHM,10/1/04,3.060752688,3.051812296,0,16.8,2976
BRHM,11/1/04,4.387847222,2.447183994,0,13.5,2880
BRHM,12/1/04,4.321505376,1.731717334,0,11.7,2976
BRHM,1/1/05,3.783058824,1.77663099,0,10.8,2975
BRHM,2/1/05,3.140736607,2.276733776,0,11.5,2688
BRHM,3/1/05,2.009543011,2.211808567,0,12.9,2976
BRHM,4/1/05,1.905625,2.229485139,0,9.9,2880
BRHM,5/1/05,3.291733871,3.38724432,0,16.2,2976
BRHM,6/1/05,4.126736111,4.722674508,0,18.3,2880
BRHM,7/1/05,2.895967742,4.365145049,0,23.7,2976
BRHM,8/1/05,3.25719086,4.117573982,0,18.3,2976
BRHM,9/1/05,3.057708333,3.567409156,0,19.7,2880
BRHM,10/1/05,4.363474462,3.627840975,0,17.6,2976
BRHM,11/1/05,4.198090278,2.133129038,0,10.9,2880
BRHM,12/1/05,4.119724462,1.617965542,0.2,10.7,2976
BRHM,1/1/06,4.253005464,1.596325282,0.1,7.7,1098
BRHM,5/1/06,2.219230769,2.355750136,0.1,11.5,286
BRHM,6/1/06,3.682657737,3.527516595,0,13.8,2837
BRHM,7/1/06,2.43874328,3.614850923,0.1,20,2976
BRHM,8/1/06,3.366801075,3.58429159,0,18.5,2976
BRHM,9/1/06,3.10625,3.518191078,0,15,2880
BRHM,10/1/06,1.706922043,1.806955507,0,10.9,2976
BRHM,11/1/06,2.647083333,1.800306359,0,10.7,2880
BRHM,12/1/06,4.478259409,1.915848399,0.1,13.1,2976
BRHM,1/1/07,3.982077052,1.736080263,0,9.8,1791
BRHM,9/1/07,4.512700881,4.217072766,0.1,19.1,1929
BRHM,10/1/07,3.17859543,2.966181742,0,15.7,2976
BRHM,11/1/07,3.2996875,2.021969447,0,11.5,2880
BRHM,12/1/07,4.324428763,1.67898469,0.1,10.2,2976
BRHM,1/1/08,3.748352387,1.726102696,0.1,9.5,2974
BRHM,2/1/08,3.177011494,1.794332589,0,9.1,2784
BRHM,3/1/08,2.348622312,2.570237824,0,15.7,2976
BRHM,4/1/08,2.278541667,2.570940949,0,13.8,2880
BRHM,5/1/08,2.747681452,3.233656203,0,15.3,2976
BRHM,6/1/08,3.529201389,4.331051169,0,22.6,2880
BRHM,7/1/08,2.982526882,3.70668129,0.1,16.8,2976
BRHM,8/1/08,2.836861559,3.510019574,0,18.7,2976
BRHM,9/1/08,4.750972222,3.848550801,0.1,17.1,2880
BRHM,10/1/08,2.644153226,2.007716062,0,10.8,2976
BRHM,11/1/08,4.239375,2.332322296,0,12.9,2880
BRHM,12/1/08,4.427788978,1.952545578,0.1,15.4,2976
BRHM,1/1/09,4.164348118,1.892258207,0,13.8,2976
BRHM,2/1/09,2.954389881,2.150125553,0,10.8,2688
BRHM,3/1/09,1.76922043,1.714095846,0,11.3,2976
BRHM,4/1/09,3.395590278,3.89033385,0,16.5,2880
BRHM,5/1/09,2.44734543,3.227130735,0,13.4,2976
BRHM,6/1/09,3.445451389,3.444181022,0,14.9,2880
BRHM,7/1/09,3.412399194,3.686074292,0,17.3,2976
BRHM,8/1/09,3.443615591,4.212165602,0,18.6,2976
BRHM,9/1/09,4.537708333,5.017851594,0,19.4,2880
BRHM,10/1/09,2.383501344,2.062541462,0,10,2976
BRHM,11/1/09,3.360416667,2.144552741,0.1,12.2,2880
BRHM,12/1/09,3.960638655,1.564938296,0.3,8.1,2975
BRHM,1/1/10,3.973387097,1.634585472,0,11.3,2976
BRHM,2/1/10,2.830654762,2.185552763,0,13.6,2688
BRHM,3/1/10,1.526579301,1.677832493,0,10.8,2976
BRHM,4/1/10,2.067534722,2.573956082,0,10.5,2880
BRHM,5/1/10,2.321135753,2.700822194,0,10.4,2976
BRHM,6/1/10,2.005277778,2.587180823,0,11.5,2880
BRHM,7/1/10,3.085853495,3.975225565,0,20,2976
BRHM,8/1/10,3.308837366,4.085994837,0,20.5,2976
BRHM,9/1/10,2.1546875,2.78246611,0,16,2880
BRHM,10/1/10,2.986659946,2.917173744,0,19.7,2976
BRHM,11/1/10,5.016825042,2.937975871,0,20.4,1789
BRHM,1/1/12,3.605098039,1.979584776,0,8.6,510
BRHM,2/1/12,3.649748563,2.853122667,0,16.1,2784
BRHM,3/1/12,2.472983871,2.27746342,0,15.5,2976
BRHM,4/1/12,2.502951389,3.007652906,0,16.1,2880
BRHM,5/1/12,5.529872312,5.106188513,0,19.4,2976
BRHM,6/1/12,3.442326389,4.216115167,0,20.4,2880
BRHM,7/1/12,1.584912634,2.008507333,0,10.9,2976
BRHM,8/1/12,4.372412634,4.888879684,0,23.8,2976
BRHM,9/1/12,2.801285444,3.288851086,0,13.4,2645
BRHM,10/1/12,2.577352151,2.472407294,0,15.6,2976
BRHM,11/1/12,3.404933982,1.911097599,0,9,2878
BRHM,12/1/12,4.13343414,1.594522484,0.2,9,2976
BRHM,1/1/13,3.953393817,1.882159114,0,10.5,2976
BRHM,2/1/13,2.945982143,1.990453267,0,10.5,2688
BRHM,3/1/13,2.145665323,1.935796718,0,11,2976
BRHM,4/1/13,2.265243056,3.236571951,0,19.9,2880
BRHM,5/1/13,2.503125,3.083592848,0,17.4,2976
BRHM,6/1/13,2.513923611,2.587356147,0,10.6,2880
BRHM,7/1/13,1.954872312,2.512288411,0,13.4,2976
BRHM,8/1/13,3.45530914,4.106241043,0,20.6,2976
BRHM,9/1/13,3.928819444,4.076107665,0,20.3,2880
BRHM,10/1/13,2.010752688,2.056742624,0,12.2,2976
BRHM,11/1/13,3.414932221,2.023376847,0,10.39,2877
BRHM,12/1/13,4.214801747,1.638273562,0.13,9.31,2976
BRHM,1/1/14,4.412237903,2.250793242,0.07,13.01,2976
BRHM,2/1/14,4.109665179,2.320766696,0,12.64,2688
BRHM,3/1/14,2.552923387,2.482260299,0,10.85,2976
BRHM,4/1/14,3.544885417,3.82081603,0,18.91,2880
BRHM,5/1/14,2.568390457,3.547840948,0,19.9,2976
BRHM,6/1/14,2.345805556,2.631189389,0,16.16,2880
BRHM,7/1/14,1.559391801,2.098938059,0,13.57,2976
BRHM,8/1/14,3.639455645,3.595827055,0,20.13,2976
BRHM,9/1/14,3.453152778,3.63376257,0,17.68,2880
BRHM,10/1/14,3.482765457,2.863693269,0,14.45,2976
BRHM,11/1/14,3.512298331,1.884925011,0,10.22,2876
BRHM,12/1/14,4.602488231,1.71853746,0.14,9.35,2974
BRHM,1/1/15,3.954912576,1.753512944,0.07,10.5,2974
BRHM,2/1/15,3.674148341,2.268703514,0.06,12.27,2683
BRHM,3/1/15,2.010176152,1.996703154,0.05,14.8,2952
BRHM,4/1/15,1.891605027,2.323392885,0.05,11.15,2785
BRHM,5/1/15,1.916932285,2.981164166,0.05,18.79,2924
BRHM,6/1/15,3.683323944,4.216328155,0.05,22.18,2840
BRHM,7/1/15,2.822060627,3.302249083,0.05,18.71,2936
BRHM,8/1/15,3.659692152,4.058677888,0.06,22.22,2956
BRHM,9/1/15,3.118637001,3.541535586,0.05,16.15,2854
BRHM,10/1/15,3.237232895,2.617178543,0.05,15.14,2967
BRHM,11/1/15,3.805894224,2.069564789,0.06,13.93,2874
BRHM,12/1/15,4.815883737,1.943746316,0.04,13.34,2976
BRHM,1/1/16,4.125030242,1.904760158,0.02,10.87,2976
BRHM,2/1/16,3.722068966,2.359832397,0.05,12.96,2784
BRHM,3/1/16,2.394254032,2.548539931,0,16.82,2976
BRHM,4/1/16,1.306121417,1.663192487,0,8.13,1186
BRHM,5/1/16,4.586967071,5.292657523,0,24.44,2308
BRHM,6/1/16,2.078246528,2.66060781,0,14.53,2880
BRHM,7/1/16,1.606955287,2.623826091,0,13.47,2818
BRHM,8/1/16,2.00971448,2.965581363,0,18.36,2942
BRHM,9/1/16,2.446638889,2.988328835,0,15.75,2880
BRHM,10/1/16,2.813030914,2.282342602,0,11.79,2976
BRHM,11/1/16,4.032878472,2.715006132,0,15.02,2880
BRHM,12/1/16,4.542534687,2.021318147,0,16.3,2955
BRHM,1/1/17,4.099327957,1.775866095,0.1,10,2976
BRHM,2/1/17,3.546577381,1.870121219,0.1,9.6,2688
BRHM,3/1/17,2.013944892,1.98677064,0,9,2976
BRHM,4/1/17,3.4878125,3.501542469,0,15.9,2880
BRHM,5/1/17,3.842573925,4.320413763,0,24.3,2976
BRHM,6/1/17,2.483368056,2.887531335,0,17.3,2880
BRHM,7/1/17,3.53938172,3.694866048,0,18.6,2976
BRHM,8/1/17,3.30453629,3.818391969,0,17.9,2976
BRHM,9/1/17,3.462871528,3.502666555,0,17.52,2880
BRHM,10/1/17,3.385883737,2.617064882,0.04,13.22,2976
BRHM,11/1/17,3.608241223,2.163525437,0,15.63,2877
BRHM,12/1/17,4.522792339,1.690790884,0.18,10.85,2976
BRHM,1/1/18,3.972701613,1.642283374,0.11,7.85,2976
BRHM,2/1/18,3.167563244,2.459376439,0,15.1,2688
BRHM,3/1/18,2.445023522,2.372434044,0.01,12.55,2976
BRHM,4/1/18,4.192427083,4.932346867,0,19.94,2880
BRHM,5/1/18,1.994267473,2.471551944,0,12.22,2976
BRHM,6/1/18,3.443461806,3.420290394,0,19.42,2880
BRHM,7/1/18,4.577607527,5.424391522,0,24.37,2976
BRHM,8/1/18,2.463615591,3.319251728,0,16.48,2976
BRHM,9/1/18,3.782121528,4.43150157,0,17.71,2880
BRHM,10/1/18,3.574257392,2.892594134,0,14.01,2976
BRHM,11/1/18,3.999295139,2.216335032,0,14.01,2880
BRHM,12/1/18,4.351211306,2.02315619,0,12.1,2972
BRHM,1/1/19,3.923336694,1.629643088,0,9.97,2976
BRHM,2/1/19,3.30921131,1.912626403,0,9.96,2688
BRHM,3/1/19,2.014875672,2.023347368,0,9.36,2976
BRHM,4/1/19,3.023399306,3.177683593,0,14.3,2880
BRHM,5/1/19,3.235322581,3.526529119,0,16.15,2976
BRHM,6/1/19,4.342579861,4.282233803,0,19.67,2880
BRHM,7/1/19,3.800853495,4.419051301,0,20.43,2976
BRHM,8/1/19,3.053417339,3.373780292,0,14.51,2976
BRHM,9/1/19,3.177861111,3.180508305,0,13.58,2880
BRHM,10/1/19,2.728125,1.950686235,0,10,2976
BRHM,11/1/19,3.603,1.905726975,0,10.36,2880
BRHM,12/1/19,4.664725073,1.77422395,0.1,10.35,2728